Regional Weather Roundup
Issued by NWS Newport/Morehead, NC

Current Version | Previous Version | Graphics & Text | Print | Product List | Glossary On
Versions: 1 2 3 4 5 6 7 8 9 10 11 12 13 14 15 16 17 18 19 20 21 22 23 24 25 26 27 28 29 30 31 32 33 34 35 36 37 38 39 40 41 42 43 44 45 46 47 48 49 50
000 ASUS42 KMHX 241925 RWRMHX WEATHER ROUNDUP FOR EASTERN NORTH CAROLINA NATIONAL WEATHER SERVICE NEWPORT/MOREHEAD CITY NC 300 PM EDT TUE APR 24 2018 NOTE: "FAIR" INDICATES FEW OR NO CLOUDS BELOW 12,000 FEET WITH NO SIGNIFICANT WEATHER AND/OR OBSTRUCTIONS TO VISIBILITY NCZ015>017-031-032-045>047-102-103-242000- NORTH COAST CITY SKY/WX TMP DP RH WIND PRES REMARKS EDENTON CLOUDY 63 61 93 E16G25 29.98F ELIZABETH CITY LGT RAIN 60 60 100 E22G35 30.03F KITTY HAWK RAIN 56 56 100 E8 30.03F MANTEO CLOUDY 58 57 97 SE10 30.04F $$ NCZ045>047-081-094-103-104-242000- CENTRAL COAST CITY SKY/WX TMP DP RH WIND PRES REMARKS FRISCO LGT RAIN 66 63 90 SE28G39 30.00F $$ NCZ095-097-098-100-101-242000- SOUTHERN COAST CITY SKY/WX TMP DP RH WIND PRES REMARKS BEAUFORT CLOUDY 62 62 100 SE6 29.92F CEDAR ISLAND NOT AVBL JACKSONVILLE CLOUDY 64 62 93 SE8 29.90F PINEY ISLAND NOT AVBL WILMINGTON CLOUDY 65 60 84 E12 29.88F $$ NCZ011>013-027>030-043-044-078>080-089-090>093-098-242000- COASTAL PLAIN CITY SKY/WX TMP DP RH WIND PRES REMARKS AHOSKIE CLOUDY 59 59 100 E7 29.96F CLINTON CLOUDY 65 64 99 CALM 29.88F ELIZABETHTOWN CLOUDY 69 65 90 MISG 29.86F GOLDSBORO CLOUDY 65 61 87 E12 29.88F GREENVILLE PTSUNNY 64 63 94 E13 29.93F HAVELOCK LGT RAIN 65 64 97 E10 29.91F FOG KENANSVILLE CLOUDY 64 61 88 SE6 29.89F KINSTON CLOUDY 63 63 100 E7 29.92S NEW BERN PTSUNNY 63 60 90 E12 29.93F RICHLANDS CLOUDY 64 61 90 E9 29.91F ROCKY MOUNT CLOUDY 63 59 87 E7 29.92F WASHINGTON CLOUDY 65 61 89 E13G25 29.92F WHITEVILLE CLOUDY 72 66 80 SE10 29.83F $$ AMZ130-135-150-152-154-156-158-170-250-252-270-ANZ085-086-088-633-658-670-242000- MARINE OBSERVATIONS STATION/POSITION TIME TEMP WIND PRES WAVE SWELL AIR SEA DIR/SP/G HT/PER HT/PER (UTC) (F) (DEG/KT/KT) (MB) (FT/S) (FT/S) CHESAPEAKE LIGHT NOT AVBL 64 E VA BEACH 1850 56 50 120/ 14/ 16 1019.9 10/ 8 8/ 8 DUCK 1900 55 53 110/ 20/ 23 1016.8 2 E DUCK 1900 52 N/A 8/ 8 2/11 OREGON INLET 1900 56 54 100/ 10/ 14 1016.7 13E OREGON INLT 1848 51 N/A 12/ 9 11/ 9 HATTERAS CG 1900 66 61 130/ 18/ 26 1015.0 DIAMOND BUOY 1910 68 71 130/ 31/ 41 1015.3 CAPE LOOKOUT 1900 110/ 7/ 8 1013.6 BEAUFORT LAB 1900 61 63 160/ 5/ 10 1013.3 30 SE NEW RVR IN 1908 64 65 50/ 4/ 12 1010.6 30 SE NEW RVR IN 1900 66 N/A 14/10 5/11 27 SE WRIGHTSVLE 1908 64 65 80/ 14/ 21 1011.7 5 SE WRIGHTSVLE NOT AVBL 225 S CAPE HAT 1910 71 73 140/ 31/ 39 1013.6 41 SE CHARLESTON 1910 69 210/ 16/ 19 1010.6 $$

USA.gov is the U.S. government's official web portal to all federal, state and local government web resources and services.